Regional Weather Roundup
Issued by NWS

Home | Current Version | Previous Version | Text Only | Print | Product List | Glossary Off
Versions: 1 2 3 4 5 6 7 8 9 10 11 12 13 14 15 16 17 18 19 20 21 22 23 24 25 26 27 28 29 30 31 32 33 34 35 36 37 38 39 40 41 42 43 44 45 46 47 48 49 50

000
ASUS43 KLSX 130959
RWRMO

WEATHER SUMMARY FOR MISSOURI
NATIONAL WEATHER SERVICE SPRINGFIELD MO
500 AM CDT SUN JUL 13 2014

NOTE: "FAIR" INDICATES FEW OR NO CLOUDS BELOW 12,000 FEET WITH NO
       SIGNIFICANT WEATHER AND/OR OBSTRUCTIONS TO VISIBILITY.
       CURRENT SKY AND/OR WEATHER CONDITIONS ARE NOT AVAILABLE FOR
       CHILLICOTHE AND FARMINGTON.

MOZ001>031-035>038-043-044-053-054-131100-
...NORTHERN AND WESTERN MISSOURI...

CITY           SKY/WX    TMP DP  RH WIND       PRES   REMARKS
KANSAS CTY INT LGT RAIN  70  68  93 N8        30.03S
KANSAS C DTWN  LGT RAIN  75  68  78 N10       30.02R
LEE`S SUMMIT   MOCLDY    77  67  71 N14       30.04R
ST JOSEPH      TSTM      71  70  96 S6        30.02F FOG
CHILLICOTHE      N/A     72  69  90 NW6       30.02R
KIRKSVILLE     LGT RAIN  70  69  97 N3        30.02R

$$
MOZ066>068-077>081-088>096-101>105-131100-
...SOUTHWEST MISSOURI...

CITY           SKY/WX    TMP DP  RH WIND       PRES   REMARKS
SPRINGFIELD    MOCLDY    72  66  81 S8        30.04S
JOPLIN         CLEAR     78  64  61 S12       30.03S

$$
MOZ032>034-039>042-045>050-055>058-069>072-131100-
...CENTRAL MISSOURI...

CITY           SKY/WX    TMP DP  RH WIND       PRES   REMARKS
COLUMBIA       MOCLDY    78  67  68 W8        30.01R
JEFFERSON CITY MOCLDY    75  69  81 VRB6      29.99R
ROLLA          CLEAR     73  68  84 S9        30.01S
SEDALIA        MOCLDY    77  67  71 W7        30.02R
OSAGE BEACH    PTCLDY    75  64  69 SW3       30.00S

$$
MOZ051-052-059>065-131100-
...EAST CENTRAL MISSOURI...

CITY           SKY/WX    TMP DP  RH WIND       PRES   REMARKS
ST LOUIS INTL  MOCLDY    82  69  64 SW12      29.97S
SPIRIT OF STL  PTCLDY    79  69  71 SW9       29.96R
ST CHARLES     PTCLDY    76  70  82 N6        29.97R

$$
MOZ072>076-082>087-097>100-106>115-131100-
...SOUTH CENTRAL AND SOUTHEAST MISSOURI...

CITY           SKY/WX    TMP DP  RH WIND       PRES   REMARKS
CAPE GIRARDEAU PTCLDY    74  72  93 NW3       30.02R
FARMINGTON       N/A    N/A N/A N/A MISG        N/A
POPLAR BLUFF   CLEAR     76  71  85 W3        30.01S
WEST PLAINS    CLEAR     72  69  90 SW5       30.07S

$$


USA.gov is the U.S. government's official web portal to all federal, state and local government web resources and services.